This demonstration page uses our WeatherBlox Daily Observations layout. Learn more.

Left ArrowRight Arrow

34.74481, -87.66753

Hourly Observations for April 12, 2021

Temp ( °F °C ) Dew Point ( °F °C ) Humidity (%) Winds ( mph kmh ) Pressure ( in mb ) Visibility ( mi km ) Precip ( " mm )
12:53 am 00:53 Clear 53 11.7 45 7.2 74 74 Calm 29.73 1007 10 16 0.00 0.00
1:53 am 01:53 Clear 51 10.6 44 6.7 77 77 Calm 29.75 1007 10 16 0.00 0.00
2:53 am 02:53 Clear 51 10.6 44 6.7 77 77 Calm 29.76 1008 10 16 0.00 0.00
3:53 am 03:53 Clear 51 10.6 44 6.7 77 77 Calm 29.77 1008 10 16 0.00 0.00
4:53 am 04:53 Clear 52 11.1 45 7.2 77 77 SW 5 7 29.78 1008 10 16 0.00 0.00
5:53 am 05:53 Clear 53 11.7 43 6.1 69 69 SW 6 9 29.79 1009 10 16 0.00 0.00
6:53 am 06:53 Sunny 56 13.3 45 7.2 67 67 WSW 7 11 29.81 1009 10 16 0.00 0.00
7:53 am 07:53 Sunny 61 16.1 48 8.9 63 63 WSW 7 11 29.83 1010 10 16 0.00 0.00
8:53 am 08:53 Sunny 67 19.4 48 8.9 51 51 W 10 17 29.85 1011 10 16 0.00 0.00
9:53 am 09:53 Sunny 70 21.1 47 8.3 44 44 W 15 24 29.87 1011 10 16 0.00 0.00
10:53 am 10:53 Sunny 72 22.2 50 10 46 46 NW 9 15 29.88 1012 10 16 0.00 0.00
11:53 am 11:53 Sunny 75 23.9 51 10.6 43 43 NW 7 11 29.89 1012 10 16 0.00 0.00
12:53 pm 12:53 Sunny 77 25 51 10.6 40 40 W 7 11 29.88 1012 10 16 0.00 0.00
1:53 pm 13:53 Sunny 79 26.1 50 10 36 36 NW 5 7 29.88 1012 10 16 0.00 0.00
2:53 pm 14:53 Sunny 81 27.2 50 10 34 34 W 6 9 29.87 1011 10 16 0.00 0.00
3:53 pm 15:53 Sunny 82 27.8 49 9.4 32 32 W 6 9 29.86 1011 10 16 0.00 0.00
4:53 pm 16:53 Sunny 82 27.8 50 10 33 33 NW 7 11 29.85 1011 10 16 0.00 0.00
5:53 pm 17:53 Sunny 82 27.8 49 9.4 32 32 NW 3 6 29.86 1011 10 16 0.00 0.00
6:53 pm 18:53 Sunny 80 26.7 49 9.4 34 34 Calm 29.87 1012 10 16 0.00 0.00
7:53 pm 19:53 Clear 70 21.1 53 11.7 55 55 SSE 3 6 29.89 1012 10 16 0.00 0.00
8:53 pm 20:53 Clear 66 18.9 55 12.8 68 68 Calm 29.91 1013 10 16 0.00 0.00
9:53 pm 21:53 Clear 64 17.8 54 12.2 70 70 Calm 29.92 1013 10 16 0.00 0.00
10:53 pm 22:53 Clear 63 17.2 53 11.7 70 70 Calm 29.93 1014 10 16 0.00 0.00
11:53 pm 23:53 Clear 59 15 52 11.1 78 78 Calm 29.94 1014 10 16 0.00 0.00

Powered by AerisWeather